Résultats de la compétition "Régionale 5 - La Mare des Pressoirs" du 14-11-2010 organisée par le club 7716
     
  Télécharger le fichier CSV.  
     
     

 Circuit "parcours A"

Licence Nom Prénom Temps CN
précédent
Score sur
la course
Différence
8237RAIMBAULTJuste1:01:0971046667-437
12934THOMASJohann1:06:5963946086-308
11531BRAULTLionel1:08:1155265979+453
5638TARDYVictor1:09:1958175881+64
11475GODEFROYBruno1:09:3266365863-773
10757MARTELFranck1:10:1662545802-452
4374BONNEAUMaxime1:11:2063535715-638
9601BESTELThierry1:14:1558345490-344
19028SCHMIDT-MORGENROTHJacques1:14:3550905466+376
3141MOREYEtienne1:17:3453465256-90
6481RORASebastien1:18:0254015224-177
6014THURIOTKevin1:19:1151995148-51
3742JOURDATOlivier1:20:0949945086+92
22PLAGNESylvain1:21:3248635000+137
12073JOVERKevin1:22:0147794970+191
13445HEALYYann1:23:2854104884-526
20377CADARTYoann1:24:1742884837+549
7630LANNEZVALYann1:24:3004824N/A
15176QUINQUENELHerve1:28:2547624611-151
883GALPINNicolas1:28:5937754581+806
18327NAVILLEThierry1:29:4940294539+510
19344DAEMAdriaan1:30:2940754505+430
19558ROCHStephane1:30:3242764503+227
1433SERGEANTDominique1:32:5152964390-906
8795BARBEDavid1:33:4638234348+525
20779MEHEUTGuillaume1:34:4835194300+781
21472DALLEEric1:38:3735604134+574
8990GUESDONMaxime1:39:3142874096-191
2171DEVILLERSChristophe1:40:2244944062-432
23652LE ROUXEric1:41:10N/A4030N/A
16588BESCHFrederic1:42:3150903976-1114
22780AUGUSTYNOWICZBrice1:44:1203912N/A
12379MONTAGARDFrederic1:45:0036203882+262
8234MORELOlivier1:48:3140623757-305
12177BARBIERPatrick1:50:20N/A3695N/A
23908CUMPSTEYIan1:51:32N/A3655N/A
20466MORANDJean-philippe1:54:3233333559+226
13318BODARDStephan1:56:4403492N/A
20784WUThierry2:09:0931473156+9
22734SAUVESTREDidier2:09:4718393141+1302
22744ROBERTJulien2:24:1702825N/A
14549POUZETStephaneN/A24840-2484
20279BEILLCédricN/A38180-3818
18446JALABERTJulienN/AN/A0N/A

  Indice de confiance du circuit (moyenne des différences entre CN et score sur la course des 3 à 10 premiers) : 164






 Retour